EW4750 Weather Reports


time (UTC)temp
C
wind
direction
speed
KPH
gust
KPH
rain 1hr
cm
rain 24hr
cm
rain mn
cm
humidity
%
barometer
mb
20260507094606 12 360 16.1 37.0 0.00 0.00 0.00 63 1012.8
20260507093053 12 360 9.7 25.7 0.00 0.00 0.00 64 1013.0
20260507091552 12 360 16.1 38.6 0.00 0.00 0.00 64 1012.6
20260507090047 11 360 4.8 19.3 0.00 0.00 0.00 67 1012.7
20260507084556 11 360 4.8 20.9 0.00 0.00 0.00 67 1012.7
20260507083044 12 360 8.0 25.7 0.00 0.00 0.00 65 1012.4
20260507081542 12 360 6.4 20.9 0.00 0.00 0.00 65 1012.4
20260507080041 12 360 6.4 29.0 0.00 0.00 0.00 64 1012.4
20260507074545 12 360 6.4 29.0 0.00 0.00 0.00 64 1012.3
20260507073038 12 360 6.4 25.7 0.00 0.00 0.00 64 1012.1
20260507071539 12 360 12.9 30.6 0.00 0.00 0.00 63 1012.4
20260507070031 12 360 9.7 25.7 0.00 0.00 0.00 63 1012.7
20260507064536 12 360 11.3 35.4 0.00 0.00 0.00 64 1012.6
20260507063029 13 360 14.5 33.8 0.00 0.00 0.00 63 1012.4
20260507061534 13 360 14.5 35.4 0.00 0.00 0.00 64 1012.5
20260507060035 12 360 12.9 35.4 0.00 0.00 0.00 65 1012.5
20260507054536 12 360 6.4 24.1 0.00 0.00 0.00 66 1012.8
20260507053026 13 360 9.7 24.1 0.00 0.00 0.00 65 1013.0
20260507051522 13 360 11.3 24.1 0.00 0.00 0.00 65 1013.0
20260507050046 13 360 9.7 32.2 0.00 0.00 0.00 64 1013.1
20260507044524 13 360 11.3 25.7 0.00 0.00 0.00 65 1012.9
20260507043020 13 360 11.3 25.7 0.00 0.00 0.00 63 1012.7
20260507041517 13 360 12.9 33.8 0.00 0.00 0.00 62 1012.4
20260507040020 14 360 11.3 32.2 0.00 0.00 0.00 61 1012.2
20260507034516 14 360 9.7 33.8 0.00 0.00 0.00 62 1012.0
20260507033020 15 360 9.7 22.5 0.00 0.00 0.00 60 1011.9
20260507031512 15 360 3.2 24.1 0.00 0.00 0.00 58 1011.9
20260507030010 16 360 8.0 20.9 0.00 0.00 0.00 55 1011.9
20260507024515 16 360 3.2 19.3 0.00 0.00 0.00 55 1011.8
20260507023008 17 360 4.8 24.1 0.00 0.00 0.00 55 1011.5
20260507021516 17 360 8.0 20.9 0.00 0.00 0.00 53 1011.4
20260507020005 18 360 8.0 22.5 0.00 0.00 0.00 52 1011.4
20260507014505 18 360 9.7 32.2 0.00 0.00 0.00 54 1011.2
20260507013007 17 360 16.1 37.0 0.00 0.00 0.00 53 1011.0
20260507011509 17 360 19.3 40.2 0.00 0.00 0.00 52 1010.9
20260507010004 18 360 16.1 35.4 0.00 0.00 0.00 49 1010.8
20260507004502 18 360 14.5 37.0 0.00 0.00 0.00 49 1010.9
20260507003001 18 360 12.9 30.6 0.00 0.00 0.00 49 1011.0
20260507001608 19 360 12.9 30.6 0.00 0.00 0.00 48 1010.9
20260507000059 19 360 12.9 30.6 0.00 0.00 0.00 48 1010.8
20260506234624 20 360 8.0 35.4 0.00 0.00 0.00 47 1010.8
20260506233100 20 360 12.9 33.8 0.00 0.00 0.00 45 1010.7
20260506231558 20 360 9.7 30.6 0.00 0.00 0.00 45 1010.6
20260506230058 20 360 9.7 32.2 0.00 0.00 0.00 45 1010.6
20260506224555 20 360 8.0 35.4 0.00 0.00 0.00 44 1010.6
20260506223100 21 360 9.7 25.7 0.00 0.00 0.00 43 1010.6
20260506221556 21 360 11.3 38.6 0.00 0.00 0.00 43 1010.8
20260506220054 21 360 12.9 32.2 0.00 0.00 0.00 45 1010.6
20260506214553 22 360 12.9 33.8 0.00 0.00 0.00 46 1010.6
20260506213052 22 360 12.9 37.0 0.00 0.00 0.00 45 1010.5
20260506211551 23 360 14.5 32.2 0.00 0.00 0.00 45 1010.3
20260506210051 23 360 12.9 32.2 0.00 0.00 0.00 45 1010.2
20260506204556 23 360 16.1 35.4 0.00 0.00 0.00 44 1010.3
20260506203048 23 360 12.9 32.2 0.00 0.00 0.00 46 1010.2
20260506201548 24 360 12.9 32.2 0.00 0.00 0.00 42 1010.2
20260506200106 24 360 12.9 25.7 0.00 0.00 0.00 42 1010.2
20260506194553 24 360 12.9 33.8 0.00 0.00 0.00 42 1010.2
20260506193045 24 360 17.7 40.2 0.00 0.00 0.00 42 1010.3
20260506191545 23 360 17.7 38.6 0.00 0.00 0.00 41 1010.3
20260506190046 23 360 25.7 45.1 0.00 0.00 0.00 38 1010.2
20260506184542 23 360 20.9 40.2 0.00 0.00 0.00 40 1010.0
20260506183057 23 360 19.3 40.2 0.00 0.00 0.00 42 1009.8
20260506181544 23 360 19.3 35.4 0.00 0.00 0.00 41 1010.1
20260506180039 23 360 19.3 40.2 0.00 0.00 0.00 40 1010.1
20260506174537 23 360 19.3 41.8 0.00 0.00 0.00 40 1010.3
20260506173037 23 222 14.5 25.7 0.00 0.00 0.00 42 1010.3
20260506171543 23 227 16.1 37.0 0.00 0.00 0.00 39 1010.4
20260506170038 22 277 9.7 29.0 0.00 0.00 0.00 42 1010.6
20260506164530 22 210 9.7 17.7 0.00 0.00 0.00 45 1010.6
20260506163024 20 236 8.0 17.7 0.00 0.00 0.00 49 1010.8
20260506161523 20 242 8.0 14.5 0.00 0.00 0.00 52 1010.8
20260506160033 20 304 0.0 9.7 0.00 0.00 0.00 53 1011.1
20260506154515 18 360 0.0 9.7 0.00 0.00 0.00 56 1011.1
20260506153011 18 360 0.0 6.4 0.00 0.00 0.00 56 1011.3
20260506151509 17 360 4.8 14.5 0.00 0.00 0.00 58 1011.4
20260506150008 16 360 4.8 11.3 0.00 0.00 0.00 60 1011.3
20260506144622 16 360 0.0 3.2 0.00 0.00 0.00 63 1011.3
20260506143103 15 360 3.2 12.9 0.00 0.00 0.00 65 1011.2
20260506141558 15 360 3.2 11.3 0.00 0.00 0.00 66 1011.4
20260506140106 13 360 1.6 6.4 0.00 0.00 0.00 70 1011.3
20260506134554 13 360 1.6 9.7 0.00 0.00 0.00 71 1011.2
20260506133053 12 360 0.0 0.0 0.00 0.00 0.00 73 1011.2
20260506131553 11 360 1.6 8.0 0.00 0.00 0.00 76 1011.0
20260506130105 10 360 0.0 3.2 0.00 0.00 0.00 78 1011.1
20260506124548 10 360 0.0 0.0 0.00 0.00 0.00 78 1010.9
20260506123046 10 360 0.0 6.4 0.00 0.00 0.00 78 1010.9
20260506121543 11 360 0.0 0.0 0.00 0.00 0.00 75 1010.8
20260506120042 11 360 0.0 0.0 0.00 0.00 0.00 73 1010.7
20260506114542 12 360 0.0 3.2 0.00 0.00 0.00 70 1010.5
20260506113037 13 360 1.6 8.0 0.00 0.00 0.00 68 1010.5
20260506111538 13 360 0.0 8.0 0.00 0.00 0.00 68 1010.4
20260506110037 13 360 4.8 11.3 0.00 0.00 0.00 67 1010.4
20260506104532 12 360 6.4 12.9 0.00 0.00 0.00 71 1010.2
20260506103026 12 360 1.6 6.4 0.00 0.00 0.00 67 1010.1
20260506101544 13 360 1.6 9.7 0.00 0.00 0.00 66 1010.0
20260506100024 13 360 4.8 11.3 0.00 0.00 0.00 65 1010.0